Regional Weather Roundup
Issued by NWS Midland/Odessa, TX

Skip options and go directly to product.
Home | Oldest Version | Next Version | Current Version | All | Text Only | Save Text | Print | Product List | Glossary On

Skip product version selection by date and time.   
871
ASUS44 KMAF 201402
RWRMAF
MIDLAND AREA WEATHER ROUNDUP
NATIONAL WEATHER SERVICE MIDLAND TX
900 AM CDT SUN APR 20 2014

...IN SOUTHWEST TEXAS AND SOUTHEAST NEW MEXICO...

CITY           SKY/WX    TMP DP  RH WIND       PRES   REMARKS
ALPINE         SUNNY     55  53  91 SW9       30.20R
ANDREWS        CLOUDY    58  55  90 CALM      30.12R
ARTESIA        PTSUNNY   55  50  82 SW6       30.10R
BIG SPRING     CLOUDY    61  57  87 CALM      30.13R
CARLSBAD       PTSUNNY   56  53  90 N6        30.09R
DRYDEN           N/A     67  62  84 SE12      30.08R
FORT STOCKTON  MOSUNNY   62  57  83 S7        30.10R
GUAD PASS      FOG       50  49  96 SW8       30.19R VSB 3/4
HOBBS          PTSUNNY   55  55 100 SW8       30.12S FOG
MARFA          MOSUNNY   52  50  93 NW3       30.19S
MIDLAND AIRPK  CLOUDY    61  57  86 CALM      30.11R
MIDLAND INTL   CLOUDY    61  57  87 SW7       30.10R
ODESSA         CLOUDY    61  56  83 SW6       30.11R
PECOS          MOSUNNY   56  55  97 CALM      30.09S FOG
PRESIDIO       FAIR      65  52  64 CALM      30.11R
SEMINOLE       CLOUDY    55  54  98 CALM      30.13R FOG
SNYDER         CLOUDY    60  58  91 CALM      30.12S
WINK           PTSUNNY   61  58  90 S8        30.08S
$$
...OTHER STATIONS IN TEXAS...

CITY           SKY/WX    TMP DP  RH WIND       PRES   REMARKS
ABILENE        PTSUNNY   65  55  70 CALM      30.11R
AMARILLO       PTSUNNY   54  51  90 S12       30.07F
AUSTIN         CLOUDY    65  61  87 SE9       30.14R FOG
BROWNSVILLE    PTSUNNY   73  68  84 SE12      30.10R
CORPUS CHRISTI PTSUNNY   73  64  73 SE15      30.12R
DALLAS FTW     CLOUDY    68  56  65 SW8       30.12S
DEL RIO        LGT RAIN  65  63  93 SE8       30.08R FOG
EL PASO        MOSUNNY   54  50  86 CALM      30.14R
HOUSTON INT    PTSUNNY   67  62  84 CALM      30.17R
LUBBOCK        PTSUNNY   58  56  93 SW7       30.10R FOG
SAN ANGELO     MOSUNNY   63  58  83 S16G23    30.06R
SAN ANTONIO    CLOUDY    66  63  90 SE8       30.13S FOG
WACO           PTSUNNY   61  57  87 SE8       30.13S
WICHITA FALLS  NOT AVBL
$$
...OTHER LOCATIONS IN NEW MEXICO...

CITY           SKY/WX    TMP DP  RH WIND       PRES   REMARKS
ALAMAGORDO     MOSUNNY   46  46 100 SE3       30.15R
ALBUQUERQUE    PTSUNNY   48  44  86 SE6       30.15R
CANNON AFB     MOSUNNY   54  47  77 SW14      30.07F
CLOVIS           N/A     54  50  87 SW14      30.10S
HOLLOMAN AFB   PTSUNNY   49  49  99 N3        30.16R
ROSWELL        PTSUNNY   52  45  77 E3        30.09R
RUIDOSO        LGT RAIN  43  41  93 W7        30.22R WCI  39
SANTA FE       MOSUNNY   46  43  89 CALM      30.14R
TRUTH OR CONSE MOSUNNY   54  45  71 W5        30.15R
TUCUMCARI      PTSUNNY   56  47  71 SW10      30.03S
$$

USA.gov is the U.S. government's official web portal to all federal, state and local government web resources and services.